GFSMA_850_thetae_210.txt.gz
Theta_e
344 345 344 344 343 344 342 342 340 339 339 340 339 335 337 339 333 338 338 335 335 336 337 337 337 338 338 338 336 335 335 339 333 332 331 331 331 332 333 335 335 335 335
342 344 343 343 343 344 343 343 342 339 339 340 337 336 335 339 336 337 340 340 341 337 339 339 338 337 337 338 338 338 336 334 332 334 335 334 335 334 330 334 333 334 337
341 343 344 345 344 344 343 342 343 343 340 341 341 340 337 339 339 340 342 341 341 341 343 339 337 338 338 338 338 338 336 335 331 328 329 330 331 333 337 333 334 337 336
343 344 344 340 341 343 343 343 344 344 343 342 341 340 340 337 338 340 339 340 341 341 344 343 340 337 336 337 334 335 331 329 330 330 328 328 330 332 331 333 334 334 333
342 341 342 341 343 342 342 342 343 343 343 343 342 343 338 337 340 341 342 342 342 342 344 345 343 337 333 329 331 331 331 332 331 331 330 327 326 326 325 331 334 335 334
340 341 345 343 341 343 344 343 341 341 344 344 345 344 344 339 340 341 341 341 341 343 343 343 344 342 333 333 334 334 334 335 337 338 336 332 332 334 329 322 323 331 335
343 343 346 343 344 342 345 344 344 342 343 344 345 344 342 344 343 341 341 342 343 341 340 342 344 343 337 336 336 337 339 338 340 339 339 333 334 331 336 333 328 324 328
345 345 345 345 345 343 342 343 344 343 342 343 344 344 345 344 346 341 340 343 344 344 343 342 343 344 339 338 342 341 340 341 341 340 340 334 339 338 338 338 337 336 324
345 342 345 345 343 344 340 343 344 345 344 342 343 344 343 344 342 344 341 342 342 343 344 342 342 343 344 338 341 341 341 341 341 342 340 333 337 337 336 335 335 337 336
345 343 346 343 344 344 343 343 343 346 345 343 341 343 341 341 344 343 343 343 343 343 342 343 342 343 342 341 339 340 341 342 343 344 340 331 336 336 336 340 336 337 338
345 343 343 342 347 342 346 344 345 346 345 344 342 342 340 342 341 341 342 344 342 343 343 342 342 341 343 341 338 339 341 342 343 344 340 331 335 336 334 337 337 336 337
342 345 346 343 344 344 343 347 345 346 346 346 343 342 344 344 343 342 342 343 343 345 344 343 343 343 344 345 342 341 343 343 343 344 340 332 335 336 336 337 340 339 327
342 343 343 344 343 344 343 343 345 347 344 342 342 341 343 344 343 344 344 345 344 345 342 344 343 343 343 344 345 343 344 344 343 344 339 334 333 337 338 334 338 336 325
346 341 342 344 344 345 346 345 347 345 346 344 343 344 342 342 343 342 345 342 344 343 343 342 341 342 344 344 344 345 344 345 344 341 339 335 329 334 336 338 337 335 331
345 345 345 342 344 347 344 347 348 344 346 345 343 345 347 347 345 343 344 345 342 342 343 343 343 343 342 344 345 345 344 345 344 341 339 337 333 330 333 335 338 339 337
346 346 344 346 347 346 343 343 342 342 342 344 346 346 347 347 345 344 343 343 346 346 345 344 342 343 345 344 346 345 344 343 343 342 339 339 338 337 334 332 335 337 339
345 347 345 347 344 344 343 345 344 345 342 342 341 346 345 345 348 346 344 343 344 346 345 345 345 344 343 344 345 339 341 342 343 342 340 339 339 339 339 338 334 333 336
344 346 348 346 344 344 346 345 342 342 342 340 343 344 342 345 345 346 346 344 347 346 346 345 344 344 345 345 345 343 342 342 343 342 340 339 339 339 339 339 339 336 332
345 344 346 346 345 344 345 344 342 338 337 336 335 339 340 343 344 344 344 346 345 345 344 343 342 345 344 344 344 345 340 339 341 342 342 340 339 339 339 339 339 339 336
344 344 343 342 342 342 343 341 340 340 342 342 342 337 339 341 342 343 344 344 346 347 346 345 344 345 345 343 343 344 343 340 339 341 343 343 341 341 339 340 340 339 338
344 344 343 341 340 340 343 345 345 346 346 345 344 344 343 340 341 342 343 343 344 345 347 348 347 346 345 345 342 342 343 342 341 342 342 342 342 342 341 340 341 340 339
343 343 342 343 344 346 346 345 345 346 346 347 342 340 341 341 342 344 343 342 344 345 345 346 347 346 344 344 345 344 344 342 342 342 341 342 342 341 340 339 341 341 340
345 347 348 348 349 349 346 344 343 343 342 342 340 339 339 338 337 338 342 344 346 347 345 344 345 345 346 345 344 345 344 343 342 342 339 341 342 342 341 341 340 340 340
349 350 350 350 350 347 342 341 343 342 341 342 342 342 343 340 338 338 337 337 341 344 346 344 343 343 343 343 345 346 346 344 344 344 342 341 343 343 342 342 341 340 339
349 350 350 346 344 343 342 343 342 341 340 338 339 341 340 340 340 341 339 337 336 338 341 343 344 343 344 344 346 347 347 346 345 344 344 343 343 342 342 342 340 339 337
345 345 345 345 344 342 342 346 346 344 342 339 334 330 329 329 330 334 338 341 342 339 340 343 344 343 342 344 345 343 344 341 339 343 342 342 342 341 341 341 340 340 338

GFSMA_850_thetae_216.txt.gz
Theta_e
348 344 344 346 341 344 348 345 344 345 348 347 347 345 344 344 343 342 342 335 333 334 339 340 339 338 337 335 338 337 334 334 335 338 335 335 333 332 332 334 333 334 335
348 348 347 351 348 343 343 345 344 347 348 348 347 346 345 344 344 345 342 339 337 337 337 338 337 336 337 337 338 339 339 338 337 336 333 336 336 335 334 334 329 330 334
346 344 348 345 351 351 344 346 346 346 347 348 347 346 343 342 345 345 346 345 343 339 337 339 339 339 338 337 337 338 338 339 336 336 335 332 330 330 329 331 336 332 332
342 345 348 350 348 349 348 351 350 344 345 348 349 347 344 344 344 345 347 347 347 346 343 342 341 339 337 337 337 338 338 335 335 332 332 332 331 329 329 331 331 333 333
343 346 350 349 341 350 349 350 350 344 349 348 349 348 347 346 345 343 345 347 346 347 346 346 344 343 340 338 335 333 331 332 331 333 333 334 335 333 330 327 328 331 332
343 342 348 344 342 344 345 349 344 349 348 350 350 348 348 347 345 344 345 347 346 348 346 347 348 346 344 340 331 330 332 332 334 335 339 339 339 335 333 333 333 325 329
343 340 348 345 342 344 345 344 349 344 346 348 350 346 345 348 345 345 345 346 347 348 347 348 348 347 348 345 337 334 334 335 337 339 340 340 340 335 335 337 332 332 323
346 344 343 349 346 351 342 342 343 350 350 350 346 344 349 347 348 347 345 346 347 347 348 348 348 348 348 348 346 339 337 338 339 341 341 341 341 335 335 338 334 336 332
343 344 345 347 345 347 350 348 347 349 349 350 347 349 350 348 348 348 349 349 348 348 348 348 349 350 349 348 348 342 340 339 339 340 342 342 343 336 334 336 337 338 338
343 345 342 344 343 348 347 349 349 346 343 345 350 348 347 347 348 348 349 349 348 348 349 349 349 351 350 348 347 347 344 340 339 340 342 343 343 337 333 336 335 337 335
343 348 343 345 343 347 349 343 346 342 350 348 349 349 348 347 348 346 346 349 349 348 348 349 348 349 348 348 346 346 340 338 340 341 342 343 344 338 333 336 334 339 338
343 344 345 342 347 347 346 350 349 346 347 346 348 344 346 348 348 349 347 348 348 349 348 349 349 348 347 348 348 347 341 339 340 343 343 343 343 337 333 337 335 337 338
342 350 344 344 349 344 342 348 343 344 346 344 342 348 348 349 350 349 349 349 349 350 350 349 350 349 347 347 348 348 345 344 342 343 344 344 342 335 332 337 336 335 340
348 349 350 347 345 344 343 344 346 350 348 348 349 344 349 349 350 349 349 349 349 348 349 349 350 349 349 349 348 347 346 344 344 344 344 344 341 336 329 334 337 337 334
349 350 344 344 343 342 344 345 344 347 350 345 351 350 350 349 349 351 350 349 350 348 347 350 349 349 349 349 346 343 344 347 343 344 344 344 341 338 333 330 333 336 338
349 349 347 346 345 344 344 345 349 349 347 349 350 350 344 346 344 343 348 350 350 349 348 349 350 350 343 343 343 342 348 344 345 345 344 342 342 339 338 337 334 332 334
348 341 340 345 350 349 345 345 344 345 344 345 345 351 348 344 346 349 348 351 349 349 349 349 351 351 344 344 344 344 344 344 346 345 344 343 342 340 339 339 339 338 337
346 348 343 349 351 348 344 344 344 350 352 350 350 350 345 346 346 344 346 349 349 350 350 350 349 349 347 346 344 344 344 345 347 340 341 340 342 341 339 338 339 339 339
348 350 346 346 351 348 349 346 345 346 351 350 349 349 349 349 349 349 351 351 349 350 349 350 350 349 352 344 342 344 345 345 345 343 341 341 342 342 341 339 339 339 339
345 349 349 345 347 348 351 351 351 351 349 348 348 349 351 351 351 351 351 348 346 349 348 349 349 349 350 348 343 342 343 344 343 344 344 339 339 339 341 342 341 341 340
350 350 349 349 350 351 349 349 343 347 348 345 348 351 352 352 350 346 348 350 350 349 348 347 348 347 348 349 347 345 344 344 343 343 344 344 343 341 340 341 341 341 341
349 345 343 344 347 350 348 339 343 352 352 352 352 352 350 345 340 340 338 337 339 345 347 348 348 347 347 346 349 349 348 346 343 343 343 344 343 342 341 341 341 342 341
350 348 350 349 349 346 349 344 344 346 347 352 351 351 351 349 349 351 346 340 340 339 338 340 345 348 347 345 347 348 349 346 345 347 345 344 344 343 342 341 340 341 341
344 346 343 342 348 353 343 343 345 346 345 344 345 350 351 351 350 347 342 348 349 349 346 340 339 337 341 343 345 347 347 347 347 347 345 345 346 343 342 342 341 341 342
346 345 349 352 354 352 347 348 346 345 349 346 344 345 345 345 344 341 339 339 342 347 347 347 346 345 338 336 337 342 346 345 346 347 344 345 345 344 343 342 342 341 341
350 354 355 353 351 348 346 344 344 345 343 342 338 331 328 326 325 324 324 326 333 336 341 343 346 346 344 339 337 341 345 344 345 347 345 343 343 343 342 339 339 339 340

GFSMA_850_thetae_219.txt.gz
Theta_e
345 346 343 344 349 349 349 347 349 347 346 345 344 344 344 343 344 342 345 333 336 337 335 335 334 335 338 339 337 335 336 334 334 333 336 335 334 333 332 334 336 335 335
348 346 348 350 346 344 344 349 344 349 348 347 346 346 345 345 344 345 344 337 335 333 336 337 337 336 335 335 335 337 337 338 337 337 336 332 334 334 333 332 334 331 330
348 350 346 351 350 352 347 351 345 347 347 348 346 346 345 346 345 345 347 347 339 336 337 337 338 338 338 338 339 339 339 339 339 338 334 336 334 329 329 329 330 334 333
349 351 349 349 350 350 348 350 350 341 344 348 347 346 344 345 345 347 347 346 347 346 343 342 340 338 337 337 338 337 338 339 339 335 332 332 331 331 329 328 330 330 334
351 348 350 352 343 351 349 350 349 347 346 350 349 347 346 345 346 345 346 345 347 347 348 346 345 343 342 340 337 336 337 335 335 334 332 332 334 336 333 331 327 327 330
351 350 350 347 346 350 349 350 346 350 350 350 349 349 348 346 347 344 344 346 345 345 345 347 345 343 343 345 339 332 330 332 332 332 334 339 339 338 335 334 333 331 326
351 350 349 349 348 348 351 352 352 344 350 349 349 349 348 349 347 345 345 347 346 346 346 347 349 348 348 348 344 339 332 333 333 335 339 340 340 340 336 334 337 332 332
349 350 346 350 349 352 345 352 352 351 350 351 345 345 350 348 348 344 346 345 346 348 348 347 347 347 347 348 347 344 336 335 337 338 341 341 341 342 338 334 338 334 333
350 351 351 348 353 348 351 354 350 351 349 349 350 350 346 347 348 346 347 346 346 347 347 347 349 347 347 348 348 347 343 339 337 339 340 341 342 343 338 333 336 337 337
350 350 352 351 352 352 351 347 350 350 351 346 351 349 349 350 349 346 348 348 349 348 347 349 349 349 348 349 346 349 348 345 341 339 340 340 342 344 341 333 336 335 336
349 349 353 353 351 349 351 343 350 352 351 349 350 349 350 349 349 349 348 349 349 349 348 349 348 348 350 347 345 349 345 342 340 338 340 341 343 344 342 332 335 333 336
349 350 354 352 353 352 351 351 354 352 349 351 350 350 342 349 348 349 349 349 349 349 348 349 348 349 349 348 347 346 347 345 337 338 342 343 343 343 340 332 336 335 335
347 347 345 348 352 350 346 352 354 353 351 352 343 341 351 349 349 349 349 349 350 349 349 350 350 349 350 348 348 349 348 346 343 342 342 343 344 343 338 330 336 336 336
346 341 349 351 352 354 353 352 351 352 353 352 352 351 350 349 348 349 349 349 347 349 349 349 351 351 351 350 349 349 349 348 344 344 344 344 344 343 338 329 333 337 336
347 349 352 351 352 353 352 353 349 344 349 351 352 352 351 350 353 350 350 350 349 349 350 351 350 351 350 351 351 351 351 351 345 344 344 344 344 342 338 335 331 333 336
350 349 351 352 353 353 353 353 348 349 349 352 351 351 348 351 346 343 343 345 350 350 350 348 350 352 352 350 351 344 350 345 345 345 344 344 343 342 340 338 337 334 332
352 352 353 352 352 355 354 352 346 352 350 351 348 353 352 351 347 348 351 346 352 350 349 348 350 352 350 346 348 344 345 346 344 344 345 345 344 342 342 339 338 338 338
352 354 353 351 352 353 354 352 345 348 352 353 352 351 351 350 348 347 341 344 342 349 350 349 348 349 350 348 350 346 344 347 349 348 345 341 341 341 342 341 339 338 339
351 352 351 349 350 350 353 353 351 352 353 352 351 350 350 351 350 350 351 351 351 349 348 346 347 348 352 348 350 345 343 344 345 348 344 344 342 340 340 342 340 339 339
350 349 348 347 348 354 354 354 354 355 354 352 351 351 351 352 352 350 351 351 351 348 350 350 351 350 349 349 348 348 346 342 343 349 347 343 343 339 339 340 341 341 340
352 350 349 350 353 354 353 351 353 352 353 352 352 353 353 353 353 350 349 349 349 350 350 350 349 349 349 348 347 349 349 350 348 343 348 347 343 343 343 341 341 340 341
349 351 351 352 351 352 351 350 348 350 353 354 354 352 352 351 347 349 346 341 342 343 343 343 346 346 346 346 348 350 350 350 350 348 345 343 346 346 343 343 342 341 340
352 352 353 353 353 352 351 348 342 342 345 351 352 350 349 349 348 352 350 349 351 343 341 340 342 343 344 345 347 343 345 346 347 349 348 349 348 349 347 343 342 341 340
354 354 353 354 355 354 351 345 343 344 346 346 353 352 351 351 350 351 349 348 349 347 345 348 347 343 341 339 342 347 345 343 345 346 347 347 348 347 347 347 343 342 340
354 354 354 353 354 355 348 346 347 348 352 353 354 352 348 346 345 339 341 341 341 341 343 345 347 346 345 345 343 347 347 347 345 344 345 345 346 347 348 347 343 341 342
352 355 355 354 354 354 344 344 348 348 348 347 344 341 335 333 331 328 327 327 327 325 332 337 336 341 345 344 344 344 343 344 346 347 345 345 345 346 347 346 346 343 340

GFSMA_850_thetae_222.txt.gz
Theta_e
347 343 342 344 348 349 348 346 347 345 346 346 346 345 346 342 343 344 343 341 336 333 333 330 329 332 333 334 338 338 336 336 337 334 334 336 334 334 334 337 335 336 335
350 348 344 340 343 346 343 348 345 345 347 345 343 343 345 344 345 347 343 340 332 335 332 332 333 333 334 338 337 335 335 336 334 334 334 336 333 333 334 331 337 335 331
348 343 346 349 350 342 349 349 342 347 347 346 346 344 343 346 344 345 347 346 344 335 335 335 335 335 334 334 334 335 337 338 340 338 338 334 333 334 332 330 329 331 334
346 350 347 351 352 351 351 348 348 341 344 347 347 348 346 346 344 343 346 346 345 344 340 340 339 337 337 337 337 337 337 337 338 339 336 333 330 329 329 329 328 329 329
347 347 349 350 347 348 350 349 348 347 341 349 347 346 347 345 344 346 340 347 346 347 345 347 342 342 341 340 338 337 336 338 338 335 334 331 330 332 334 333 331 327 327
346 348 352 351 343 348 349 348 347 346 345 349 344 347 347 345 347 346 344 344 346 348 346 344 346 345 342 341 344 340 335 334 332 333 331 331 337 339 338 335 333 333 329
348 347 347 350 347 347 349 349 345 343 349 350 349 348 349 347 346 348 345 344 346 343 346 344 347 348 345 342 345 340 340 330 332 331 332 338 340 339 340 337 333 336 333
348 350 340 350 350 348 350 348 347 350 350 351 349 344 345 347 345 346 347 345 346 347 346 346 346 347 346 347 347 347 342 335 335 334 336 340 341 341 341 340 332 337 337
347 346 350 342 350 346 349 342 348 345 349 350 344 349 346 346 347 347 347 346 346 346 346 348 347 342 347 347 347 343 344 343 338 336 337 340 340 342 342 340 332 335 337
347 352 346 345 344 346 350 350 351 349 348 349 349 351 350 349 344 345 339 344 345 348 346 345 348 347 346 347 346 343 344 343 343 339 338 339 340 341 342 341 334 335 334
343 345 347 348 345 344 349 348 346 352 348 350 350 350 349 349 350 347 346 340 338 342 350 346 349 349 349 347 347 347 349 347 342 344 340 338 340 342 342 342 334 334 334
349 346 351 349 349 347 348 350 346 345 347 349 348 350 348 345 348 349 346 348 347 349 349 348 348 348 350 350 345 343 347 349 346 335 336 339 342 343 343 340 331 334 335
349 350 344 349 346 347 345 346 347 350 349 347 347 341 340 347 350 349 347 349 350 350 350 350 350 348 348 350 349 347 346 345 346 343 340 341 342 343 344 339 329 335 336
348 349 347 343 344 351 351 346 344 348 351 352 350 347 342 350 349 349 350 348 349 348 346 336 349 350 350 347 348 348 348 348 348 346 344 343 343 344 343 339 331 331 336
349 348 341 345 348 351 351 350 349 350 345 349 345 347 345 349 351 340 351 349 350 348 347 348 344 345 351 349 349 350 351 350 346 346 345 344 343 344 344 341 336 332 331
350 349 345 350 349 348 350 348 348 345 346 347 352 352 351 348 352 347 341 342 340 348 351 348 351 348 345 351 351 351 350 348 344 345 345 343 343 344 343 341 339 338 336
350 350 346 348 351 350 350 349 346 345 352 344 347 349 350 348 349 347 344 346 346 348 351 348 349 350 350 347 347 344 345 344 344 344 343 343 344 344 344 342 341 338 338
350 351 349 352 347 345 348 352 349 345 345 348 349 349 347 350 351 348 349 349 348 346 343 345 346 344 343 345 345 342 338 348 350 346 345 346 344 344 344 343 341 340 338
345 351 351 345 347 345 348 350 348 346 346 351 351 351 350 350 350 348 350 349 352 352 351 351 349 348 346 345 349 347 346 348 344 344 343 344 345 344 342 340 340 341 340
349 344 346 347 345 345 348 349 351 350 349 349 350 352 351 350 349 349 349 348 347 348 349 347 348 348 350 349 348 347 346 345 345 343 343 344 344 344 343 340 339 340 341
350 350 346 346 345 345 348 350 349 348 349 348 347 348 348 351 352 352 349 346 342 342 347 347 348 348 348 346 347 347 346 347 347 347 349 347 344 343 343 343 342 339 340
348 349 350 347 345 348 350 352 352 352 353 351 351 350 350 345 344 349 348 350 348 350 347 342 340 340 340 346 346 346 345 346 346 347 349 348 348 345 341 340 342 343 342
345 347 348 351 348 349 350 352 352 350 348 342 348 347 344 351 351 349 347 349 349 348 347 347 344 339 339 339 340 341 344 343 343 344 344 345 346 345 346 345 341 341 342
345 347 349 351 351 351 351 349 348 348 345 344 343 344 348 349 349 346 345 346 346 346 348 349 349 347 345 346 347 346 342 342 341 341 342 343 344 344 346 347 347 344 341
351 351 351 352 352 352 350 341 341 342 343 345 348 351 351 351 346 339 332 329 327 326 327 327 330 342 345 343 345 345 344 345 346 345 341 342 339 342 344 344 346 345 342
354 353 353 352 353 352 348 344 345 346 348 351 351 348 343 337 333 332 331 331 330 330 331 331 331 331 328 335 341 345 345 345 343 344 342 341 339 344 345 343 343 343 344